STARLINK-31996 (60100 NORAD) Tracking and Keplerian Element Data

This shows tracking and keplerian element data for the satellite.

Feedback or suggestion? Click here.




ElementValue
Catalog60100
NameSTARLINK-31996
Epoch Orbit1834
Epoch Day286.66779589
Epoch Year2024
RAAN259.8353
Inclination53.159
Eccentricity8.38E-05
Argument of Perigee99.9296
Mean Anonmoly260.1799
Mean Motion15.30178496
Decay Rate0.00040341
L11 60100U 24117K 24286.66779589 .00040341 00000+0 13677-2 0 9998
L22 60100 53.1590 259.8353 0000838 99.9296 260.1799 15.30178496 18344



Live tracking and technical data element details for STARLINK-31996 (NORAD 60100). STARLINK-31996 can be tracked NOW for your location showing map with azimuth and elevation plus other details from your city location.







IsCatalogInMostPopularTable: catalog: 60100, numindb: 10
Update: records affected: 1



GetName: 60100 STARLINK-31996

Hit Count: updated at: Thu, 23 Jan 2025 14:10:05 GMT